Date String (YYYY-MM-DD hh:mm:ss) UTC,Instrument flags,Ambient pressure (hPa),Sample flow (lpm),Bypass flow (lpm),Sample temperature (°C),Ambient temperature (°C),ASC tube jacket temperature (°C),LED temperature (°C),Box temperature (°C),Sample RH (%),Span deviation,Mass concentration (μg/m³),Mass concentration (μg/m³),Mass concentration (μg/m³)
DateTimeUTC,F1_M11,P_M11,Q1_M11,Q2_M11,T1_M11,T2_M11,T3_M11,T4_M11,T5_M11,U1_M11,ZSPAN_M11,X2_M11,X0_M11,X1_M11
2023-01-14 03:00:00,,0826.3,5.00,0.00,26.0,24.5,00.0,34.8,27.8,11.0,0004.3,0015.80,0023.53,0014.72
2023-01-14 03:01:00,,0826.3,4.99,0.00,26.0,24.5,00.0,34.8,27.8,11.1,0004.7,0015.91,0023.59,0014.86
2023-01-14 03:02:00,,0826.3,5.00,0.00,26.0,24.5,00.0,34.8,27.7,11.3,0004.9,0015.69,0023.25,0014.65
2023-01-14 03:03:00,,0826.2,5.00,0.00,26.0,24.5,00.0,34.8,27.7,11.1,0005.4,0015.64,0023.30,0014.56
2023-01-14 03:04:00,,0826.2,5.01,0.00,25.9,24.5,00.0,34.8,27.7,11.0,0005.2,0015.74,0023.33,0014.67
2023-01-14 03:05:00,,0826.2,5.01,0.00,25.9,24.5,00.0,34.8,27.7,11.0,0004.6,0015.67,0023.09,0014.66
2023-01-14 03:06:00,,0826.2,5.00,0.00,25.9,24.5,00.0,34.8,27.7,11.0,0004.8,0015.63,0022.60,0014.60
2023-01-14 03:07:00,,0826.2,4.99,0.00,25.9,24.5,00.0,34.8,27.7,10.9,0004.7,0015.64,0021.08,0014.54
2023-01-14 03:08:00,,0826.4,5.00,0.00,25.9,24.5,00.0,34.8,27.7,10.9,0005.0,0015.50,0021.03,0014.38
2023-01-14 03:09:00,,0826.2,5.01,0.00,25.9,24.5,00.0,34.8,27.7,11.1,0005.5,0015.09,0020.94,0013.93
2023-01-14 03:10:00,,0826.3,5.01,0.00,25.9,24.5,00.0,34.8,27.7,10.9,0005.6,0014.68,0021.00,0013.55
2023-01-14 03:11:00,,0826.4,5.00,0.00,25.9,24.5,00.0,34.8,27.7,11.2,0005.0,0014.23,0020.67,0013.16
2023-01-14 03:12:00,,0826.4,5.00,0.00,25.9,24.5,00.0,34.8,27.7,11.3,0003.6,0013.81,0020.27,0012.74
2023-01-14 03:13:00,,0826.3,5.00,0.00,25.9,24.4,00.0,34.8,27.6,11.2,0002.9,0013.81,0020.96,0012.75
2023-01-14 03:14:00,,0826.2,5.00,0.00,25.9,24.4,00.0,34.8,27.7,10.8,0001.8,0013.95,0021.09,0012.94
2023-01-14 03:15:00,,0826.3,5.00,0.00,25.9,24.4,00.0,34.8,27.7,10.6,0002.1,0014.01,0021.11,0012.99
2023-01-14 03:16:00,,0826.2,4.99,0.00,25.9,24.4,00.0,34.8,27.7,10.9,0003.3,0013.95,0021.09,0012.91
2023-01-14 03:17:00,,0826.2,5.00,0.00,25.9,24.4,00.0,34.8,27.7,10.8,0004.7,0013.90,0021.12,0012.88
2023-01-14 03:18:00,,0826.2,5.00,0.00,25.9,24.4,00.0,34.7,27.6,10.8,0005.4,0013.89,0021.39,0012.90
2023-01-14 03:19:00,,0826.2,5.00,0.00,25.9,24.4,00.0,34.7,27.6,10.6,0005.4,0014.00,0021.45,0013.00
2023-01-14 03:20:00,,0826.2,5.00,0.00,25.9,24.4,00.0,34.7,27.7,10.4,0005.3,0014.25,0021.77,0013.30
2023-01-14 03:21:00,,0826.2,5.00,0.00,25.8,24.3,00.0,34.7,27.6,10.3,0005.7,0014.47,0021.86,0013.51
2023-01-14 03:22:00,,0826.2,5.00,0.00,25.8,24.3,00.0,34.7,27.6,10.3,0006.0,0014.86,0022.13,0013.91
2023-01-14 03:23:00,,0826.1,5.01,0.00,25.8,24.2,00.0,34.7,27.6,10.2,0006.2,0015.41,0022.23,0014.45
2023-01-14 03:24:00,,0826.2,5.01,0.00,25.8,24.2,00.0,34.7,27.6,10.2,0006.4,0015.69,0021.79,0014.73
2023-01-14 03:25:00,,0826.1,4.99,0.00,25.8,24.1,00.0,34.7,27.6,10.2,0006.6,0015.66,0021.61,0014.73
2023-01-14 03:26:00,,0826.2,5.01,0.00,25.7,23.9,00.0,34.7,27.5,10.2,0006.5,0015.47,0022.02,0014.60
2023-01-14 03:27:00,,0826.2,5.00,0.00,25.7,23.8,00.0,34.7,27.4,10.6,0006.2,0015.38,0021.80,0014.51
2023-01-14 03:28:00,,0826.2,5.00,0.00,25.7,23.7,00.0,34.7,27.4,10.7,0006.2,0015.21,0021.52,0014.34
2023-01-14 03:29:00,,0826.2,5.00,0.00,25.6,23.7,00.0,34.6,27.4,10.8,0005.3,0014.98,0021.14,0014.17
2023-01-14 03:30:00,,0826.2,5.00,0.00,25.6,23.7,00.0,34.6,27.4,11.0,0005.0,0014.62,0020.56,0013.85
2023-01-14 03:31:00,,0826.2,5.00,0.00,25.6,23.7,00.0,34.6,27.3,11.1,0004.9,0014.28,0020.31,0013.54
2023-01-14 03:32:00,,0826.2,5.00,0.00,25.6,23.7,00.0,34.6,27.3,11.1,0005.1,0013.95,0019.40,0013.24
2023-01-14 03:33:00,,0826.2,4.99,0.00,25.6,23.8,00.0,34.5,27.3,10.9,0005.4,0013.54,0018.80,0012.86
2023-01-14 03:34:00,,0826.2,5.00,0.00,25.5,23.7,00.0,34.5,27.3,10.8,0005.6,0013.04,0018.67,0012.38
2023-01-14 03:35:00,,0826.2,5.00,0.00,25.5,23.6,00.0,34.5,27.3,10.9,0005.4,0012.74,0018.68,0012.08
2023-01-14 03:36:00,,0826.2,5.00,0.00,25.5,23.7,00.0,34.5,27.3,10.9,0004.9,0012.55,0018.74,0011.85
2023-01-14 03:37:00,,0826.2,5.00,0.00,25.5,23.8,00.0,34.5,27.3,10.9,0004.9,0012.41,0018.43,0011.68
2023-01-14 03:38:00,,0826.1,5.00,0.00,25.5,23.9,00.0,34.5,27.3,10.8,0005.0,0012.41,0019.10,0011.66
2023-01-14 03:39:00,,0826.0,5.00,0.00,25.5,23.9,00.0,34.4,27.3,10.7,0005.1,0012.60,0019.63,0011.84
2023-01-14 03:40:00,,0826.0,5.01,0.00,25.5,24.0,00.0,34.4,27.3,10.7,0005.3,0012.81,0019.59,0012.01
2023-01-14 03:41:00,,0826.0,4.98,0.00,25.5,24.0,00.0,34.4,27.3,10.9,0005.2,0013.01,0019.76,0012.22
2023-01-14 03:42:00,,0826.1,5.01,0.00,25.5,24.1,00.0,34.4,27.3,11.3,0005.2,0013.10,0019.40,0012.30
2023-01-14 03:43:00,,0826.1,4.98,0.00,25.5,24.1,00.0,34.4,27.3,11.2,0004.9,0013.19,0019.51,0012.36
2023-01-14 03:44:00,,0826.2,4.97,0.00,25.5,24.1,00.0,34.4,27.3,11.1,0004.6,0013.35,0019.77,0012.45
2023-01-14 03:45:00,,0826.0,5.01,0.00,25.5,24.1,00.0,34.4,27.3,10.9,0004.7,0013.48,0019.46,0012.56
2023-01-14 03:46:00,,0826.0,4.99,0.00,25.5,24.1,00.0,34.4,27.3,10.8,0005.2,0013.68,0019.34,0012.73
2023-01-14 03:47:00,,0826.0,5.01,0.00,25.5,24.1,00.0,34.4,27.4,10.9,0005.3,0013.79,0019.39,0012.86
2023-01-14 03:48:00,,0826.0,5.00,0.00,25.5,24.1,00.0,34.4,27.4,10.9,0005.2,0013.80,0019.76,0012.88
2023-01-14 03:49:00,,0826.0,4.99,0.00,25.5,24.1,00.0,34.4,27.2,11.3,0004.9,0013.68,0018.86,0012.76
2023-01-14 03:50:00,,0826.0,5.00,0.00,25.5,24.1,00.0,34.4,27.2,11.6,0004.4,0013.38,0018.30,0012.45
2023-01-14 03:51:00,,0826.0,4.99,0.00,25.5,24.1,00.0,34.4,27.2,11.6,0004.2,0013.12,0018.08,0012.20
2023-01-14 03:52:00,,0826.0,5.00,0.00,25.5,24.0,00.0,34.4,27.2,11.8,0004.6,0012.89,0017.81,0011.93
2023-01-14 03:53:00,,0826.0,5.00,0.00,25.5,24.0,00.0,34.4,27.2,11.2,0004.7,0012.80,0017.69,0011.83
2023-01-14 03:54:00,,0826.0,5.01,0.00,25.5,23.9,00.0,34.4,27.1,11.2,0005.1,0012.67,0017.66,0011.72
2023-01-14 03:55:00,,0825.9,5.01,0.00,25.4,23.9,00.0,34.4,27.1,11.3,0005.2,0012.46,0017.48,0011.54
2023-01-14 03:56:00,,0825.9,5.01,0.00,25.4,23.9,00.0,34.4,27.1,11.5,0004.5,0012.18,0017.28,0011.27
2023-01-14 03:57:00,,0825.9,5.00,0.00,25.4,23.9,00.0,34.3,27.1,11.2,0003.5,0011.83,0017.05,0010.96
2023-01-14 03:58:00,,0825.8,4.99,0.00,25.4,23.9,00.0,34.3,27.1,11.1,0003.2,0011.53,0016.62,0010.71
2023-01-14 03:59:00,,0826.3,5.01,0.00,25.4,23.9,00.0,34.3,27.1,11.2,0003.3,0011.26,0015.56,0010.47
